This demonstration page uses our WeatherBlox Daily Observations layout. Learn more.

Hourly Observations for November 19, 2018

Temp ( °F °C ) Dew Point ( °F °C ) Humidity (%) Winds ( mph kmh ) Pressure ( in mb ) Visibility ( mi km ) Precip ( " mm )
12:15 am 00:15 Clear 27 -3 23 -4.8 88 88 WSW 5 7 30.12 1020 10 16.09344 0 0
12:35 am 00:35 Clear 28 -2 25 -4 86 86 W 10 17 30.12 1020 10 16.09344 0 0
12:55 am 00:55 Clear 28 -2.5 24 -4.5 86 86 W 10 17 30.12 1020 10 16.09344 0 0
1:15 am 01:15 Clear 28 -2.3 24 -4.5 85 85 W 9 15 30.12 1020 10 16.09344 0 0
1:35 am 01:35 Clear 28 -2.3 24 -4.7 84 84 NW 9 15 30.12 1020 10 16.09344 0 0
1:55 am 01:55 Clear 28 -2.3 25 -4 88 88 NW 10 17 30.12 1020 10 16.09344 0 0
2:15 am 02:15 Clear 30 -1.2 26 -3.6 84 84 NW 9 15 30.15 1021 10 16.09344 0 0
2:35 am 02:35 Clear 30 -1 26 -3.5 83 83 NW 9 15 30.15 1021 10 16.09344 0 0
2:55 am 02:55 Clear 32 -0.1 25 -3.7 77 77 NW 8 13 30.12 1020 10 16.09344 0 0
3:15 am 03:15 Clear 32 -0.1 25 -3.7 77 77 NW 7 11 30.12 1020 10 16.09344 0 0
3:35 am 03:35 Partly Cloudy 32 -0.2 25 -3.7 78 78 NW 6 9 30.15 1021 10 16.09344 0 0
3:55 am 03:55 Clear 30 -0.9 25 -4.1 79 79 NW 8 13 30.15 1021 10 16.09344 0 0
4:15 am 04:15 Clear 31 -0.7 24 -4.3 77 77 NW 12 19 30.18 1022 10 16.09344 0 0
4:35 am 04:35 Clear 31 -0.6 25 -3.9 79 79 NW 13 20 30.18 1022 10 16.09344 0 0
4:55 am 04:55 Partly Cloudy 31 -0.3 26 -3.3 80 80 NW 9 15 30.18 1022 10 16.09344 0 0
5:15 am 05:15 Mostly Cloudy 31 -0.5 27 -3 83 83 NW 9 15 30.18 1022 10 16.09344 0 0
5:35 am 05:35 Mostly Cloudy 32 0 28 -2.4 84 84 NW 9 15 30.18 1022 10 16.09344 0 0
5:55 am 05:55 Mostly Cloudy 33 0.4 30 -1.2 89 89 NNW 12 19 30.15 1021 10 16.09344 0 0
6:15 am 06:15 Mostly Cloudy 33 0.6 30 -1 89 89 NNW 8 13 30.18 1022 10 16.09344 0 0
6:35 am 06:35 Cloudy 33 0.5 30 -0.9 90 90 NNW 7 11 30.18 1022 10 16.09344 0 0
6:55 am 06:55 Cloudy 32 -0.1 30 -1.2 92 92 NW 5 7 30.21 1023 10 16.09344 0 0
7:15 am 07:15 Partly Cloudy 30 -1 29 -1.6 96 96 NW 7 11 30.21 1023 10 16.09344 0 0
7:35 am 07:35 Sunny 28 -2 27 -2.7 95 95 WNW 6 9 30.21 1023 10 16.09344 0 0
7:55 am 07:55 Sunny 28 -2.1 27 -2.7 96 96 WNW 7 11 30.24 1024 10 16.09344 0 0
8:15 am 08:15 Sunny 29 -1.6 28 -2.2 96 96 NW 8 13 30.24 1024 10 16.09344 0 0
8:35 am 08:35 Sunny 31 -0.3 29 -1.5 92 92 NW 8 13 30.24 1024 10 16.09344 0 0
8:55 am 08:55 Sunny 32 -0.1 29 -1.4 91 91 NW 8 13 30.24 1024 10 16.09344 0 0
9:15 am 09:15 Partly Cloudy 34 1.3 31 -0.4 89 89 NW 10 17 30.21 1023 10 16.09344 0 0
9:35 am 09:35 Mostly Cloudy 36 2.1 32 -0.2 85 85 NW 12 19 30.21 1023 10 16.09344 0 0
9:55 am 09:55 Partly Cloudy 37 2.8 32 0 82 82 NW 12 19 30.21 1023 10 16.09344 0 0
10:15 am 10:15 Mostly Cloudy 38 3.4 32 0.2 80 80 NW 13 20 30.24 1024 10 16.09344 0 0
10:35 am 10:35 Mostly Cloudy 38 3.6 33 0.5 80 80 NNW 12 19 30.24 1024 10 16.09344 0 0
10:55 am 10:55 Mostly Cloudy 40 4.4 34 1.2 80 80 NNW 14 22 30.21 1023 10 16.09344 0 0
11:15 am 11:15 Mostly Cloudy 40 4.7 35 1.5 80 80 NNW 13 20 30.21 1023 10 16.09344 0 0
11:35 am 11:35 Partly Cloudy 41 5.2 35 1.8 79 79 NNW 14 22 30.21 1023 10 16.09344 0 0
11:55 am 11:55 Sunny 42 5.5 35 1.7 77 77 NW 12 19 30.21 1023 10 16.09344 0 0
12:15 pm 12:15 Sunny 43 6 35 1.7 74 74 NNW 13 20 30.21 1023 10 16.09344 0 0
12:35 pm 12:35 Partly Cloudy 44 6.5 35 1.8 72 72 NNW 10 17 30.21 1023 10 16.09344 0 0
12:55 pm 12:55 Mostly Cloudy 44 6.6 35 1.4 70 70 NNW 10 17 30.21 1023 10 16.09344 0 0
1:15 pm 13:15 Mostly Cloudy 44 6.8 35 1.5 69 69 NW 12 19 30.18 1022 10 16.09344 0 0
1:35 pm 13:35 Partly Cloudy 46 7.6 35 1.9 67 67 NNW 14 22 30.15 1021 10 16.09344 0 0
1:55 pm 13:55 Cloudy 44 6.7 35 1.5 70 70 NNW 10 17 30.18 1022 10 16.09344 0 0
2:15 pm 14:15 Cloudy 45 7 34 1.3 67 67 NNW 14 22 30.21 1023 10 16.09344 0 0
2:35 pm 14:35 Cloudy 44 6.6 34 1.1 68 68 NNW 9 15 30.21 1023 10 16.09344 0 0
2:55 pm 14:55 Cloudy 44 6.6 34 0.9 67 67 NNW 9 15 30.21 1023 10 16.09344 0 0
3:15 pm 15:15 Cloudy 44 6.8 33 0.8 66 66 NNW 12 19 30.21 1023 10 16.09344 0 0
3:35 pm 15:35 Cloudy 44 6.8 34 0.9 66 66 NNW 12 19 30.21 1023 10 16.09344 0 0
3:55 pm 15:55 Cloudy 44 6.5 34 0.9 68 68 NNW 9 15 30.21 1023 10 16.09344 0 0
4:15 pm 16:15 Partly Cloudy 44 6.5 34 1 68 68 NNW 8 13 30.21 1023 10 16.09344 0 0
4:35 pm 16:35 Sunny 43 6.1 34 1.1 71 71 NNW 6 9 30.24 1024 10 16.09344 0 0
4:55 pm 16:55 Mostly Cloudy 42 5.5 33 0.5 71 71 N 7 11 30.24 1024 10 16.09344 0 0
5:15 pm 17:15 Cloudy 42 5.5 33 0.7 72 72 NNW 3 6 30.24 1024 10 16.09344 0 0
5:35 pm 17:35 Cloudy 40 4.6 33 0.6 76 76 Calm 30.24 1024 10 16.09344 0 0
5:55 pm 17:55 Cloudy 40 4.2 33 0.6 78 78 N 3 6 30.27 1025 10 16.09344 0 0
6:15 pm 18:15 Cloudy 37 3 32 0.1 81 81 NNE 3 6 30.27 1025 10 16.09344 0 0
6:35 pm 18:35 Cloudy 38 3.5 33 0.5 81 81 Calm 30.3 1026 10 16.09344 0 0
6:55 pm 18:55 Cloudy 37 3 33 0.5 84 84 Calm 30.3 1026 10 16.09344 0 0
7:15 pm 19:15 Cloudy 38 3.2 33 0.5 83 83 Calm 30.3 1026 10 16.09344 0 0
7:35 pm 19:35 Cloudy 37 3 33 0.5 84 84 Calm 30.3 1026 10 16.09344 0 0
7:55 pm 19:55 Cloudy 37 3 33 0.5 84 84 Calm 30.3 1026 10 16.09344 0 0
8:15 pm 20:15 Cloudy 36 2.1 33 0.5 89 89 Calm 30.3 1026 10 16.09344 0 0
8:35 pm 20:35 Cloudy 35 1.4 32 0 91 91 Calm 30.33 1027 10 16.09344 0 0
8:55 pm 20:55 Cloudy 35 1.4 32 0 91 91 Calm 30.33 1027 10 16.09344 0 0
9:15 pm 21:15 Cloudy 34 1.1 32 0.1 93 93 Calm 30.36 1028 10 16.09344 0 0
9:35 pm 21:35 Cloudy 35 1.5 32 0.1 91 91 Calm 30.33 1027 10 16.09344 0 0
9:55 pm 21:55 Cloudy 34 0.9 32 0.1 94 94 Calm 30.36 1028 10 16.09344 0 0
10:15 pm 22:15 Mostly Cloudy 32 -0.2 30 -1.2 93 93 ENE 3 6 30.36 1028 10 16.09344 0 0
10:35 pm 22:35 Cloudy 31 -0.6 29 -1.4 94 94 ENE 7 11 30.36 1028 10 16.09344 0 0
10:55 pm 22:55 Cloudy 33 0.5 31 -0.4 94 94 ESE 6 9 30.36 1028 10 16.09344 0 0
11:15 pm 23:15 Partly Cloudy 32 -0.1 30 -1 94 94 SSE 5 7 30.36 1028 10 16.09344 0 0
11:35 pm 23:35 Clear 31 -0.5 29 -1.4 94 94 SSW 6 9 30.36 1028 10 16.09344 0 0
11:55 pm 23:55 Mostly Cloudy 32 -0.1 31 -0.7 96 96 SSW 5 7 30.36 1028 10 16.09344 0 0

Powered by AerisWeather